Location: Aalen
(48.8330°N, 10.1000°E)
Time: 09:33:22
(UTC+02:00)

Transit 2A - Pass Details

Date: 07 August 2021
Orbit: 594 x 964 km, 66.7° (Epoch: 24 September)

Event Time Altitude Azimuth Distance (km) Brightness Sun altitude
Rises 10:45:11 0° 315° (NW) 3,066 8.7 44.0°
Reaches altitude 10° 10:49:41 10° 354° (N) 2,254 8.3 44.7°
Maximum altitude 10:50:50 11° 7° (N) 2,234 8.3 44.8°
Drops below altitude 10° 10:52:02 10° 20° (NNE) 2,310 8.5 45.0°
Sets 10:56:56 0° 58° (ENE) 3,358 9.5 45.7°
